Flag for U.S.A. Weather past 2 weeks in Chico, California, U.S.A.

Now
59 °F

Clear.


Feels Like: 59 °F
Forecast: 56 / 88 °F
Wind: No wind

Location: Chico Municipal

Current Time: Apr 27, 2015 at 2:31:03 AM

Latest Report: Apr 27, 2015 at 1:55 AM


Visibility: 10 mi

Pressure: 30.06 "Hg

Humidity: 59%

Dew point: 45 °F

Location of ChicoLocation

Historic Weather in Chico — Graph

°F

Chico temperature yesterday

Maximum temperature yesterday: 79 °F (at 5:47 PM)
Minimum temperature yesterday: 48 °F (at 6:50 AM)
Average temperature yesterday: 61 °F

Past Weeks' High & Low Weather Summary

 TemperatureHumidityPressure
High90 °F (Apr 19, 3:47 PM)100% (Apr 25, 12:15 AM)30.35 "Hg (Apr 25, 12:15 AM)
Low41 °F (Apr 15, 6:15 AM)12% (Apr 12, 4:50 PM)29.71 "Hg (Apr 20, 5:47 PM)
Average62 °F50%29.95 "Hg
* Reported Apr 12 1:15 AM — Apr 27 1:15 AM, Chico, Weather by CustomWeather, © 2015

Note: Actual official high and low records may vary slightly from our data, if they occured in-between our weather recording intervals... More about our weather records

Advertising

Chico weather history for previous 24 hours

 ConditionsComfort  
Time TempWeatherWind HumidityBarometerVisibility
1:15 AM
Mon, Apr 27
61 °FClear.No wind59%30.06 "Hg10 mi
12:55 AM63 °FClear.No wind52%30.05 "Hg10 mi
12:35 AM63 °FClear.No wind52%30.05 "Hg10 mi
12:15 AM64 °FClear.3 mph46%30.05 "Hg10 mi
11:55 PM
Sun, Apr 26
64 °FClear.7 mph49%30.05 "Hg10 mi
11:35 PM63 °FClear.8 mph56%30.06 "Hg10 mi
11:15 PM61 °FClear.6 mph59%30.06 "Hg10 mi
10:55 PM63 °FClear.No wind59%30.05 "Hg10 mi
10:35 PM70 °FClear.6 mph35%30.05 "Hg10 mi
10:15 PM64 °FClear.No wind52%30.06 "Hg10 mi
9:55 PM66 °FClear.No wind49%30.06 "Hg10 mi
9:35 PM68 °FClear.No wind43%30.05 "Hg10 mi
9:15 PM68 °FClear.No wind43%30.04 "Hg10 mi
8:35 PM72 °FSunny.7 mph38%30.03 "Hg10 mi
8:15 PM72 °FSunny.7 mph38%30.02 "Hg10 mi
7:55 PM73 °FSunny.9 mph36%30.01 "Hg10 mi
7:35 PM75 °FSunny.12 mph31%30.01 "Hg10 mi
7:15 PM77 °FSunny.13 mph28%30.01 "Hg10 mi
6:55 PM77 °FSunny.10 mph28%30.01 "Hg10 mi
5:47 PM79 °FScattered clouds.12 mph24%30.02 "Hg80 mi
3:47 PM77 °FBroken clouds.12 mph24%30.05 "Hg80 mi
2:47 PM75 °FBroken clouds.17 mph24%30.08 "Hg80 mi
1:47 PM73 °FBroken clouds.14 mph27%30.09 "Hg80 mi
12:47 PM70 °FBroken clouds.14 mph31%30.12 "Hg80 mi
11:47 AM68 °FBroken clouds.12 mph35%30.13 "Hg80 mi
10:50 AM64 °FBroken clouds.6 mph40%30.14 "Hg80 mi
9:50 AM61 °FScattered clouds.6 mph48%30.14 "Hg80 mi
8:54 AM59 °FScattered clouds.No wind59%30.12 "Hg80 mi
7:49 AM55 °FPartly sunny.6 mph77%30.11 "Hg80 mi
6:50 AM48 °FPassing clouds.No wind87%30.09 "Hg80 mi
6:35 AM50 °FClear.No wind88%30.09 "Hg10 mi
6:15 AM50 °FClear.No wind88%30.07 "Hg10 mi
5:55 AM50 °FClear.No wind82%30.07 "Hg10 mi
5:35 AM50 °FClear.No wind82%30.07 "Hg10 mi
5:15 AM50 °FClear.No wind82%30.06 "Hg10 mi
4:55 AM52 °FClear.No wind77%30.06 "Hg10 mi
4:35 AM54 °FClear.No wind72%30.05 "Hg10 mi
4:15 AM54 °FClear.No wind72%30.04 "Hg10 mi
3:55 AM52 °FClear.No wind77%30.04 "Hg10 mi
3:35 AM52 °FClear.No wind77%30.04 "Hg10 mi
3:15 AM54 °FClear.No wind72%30.03 "Hg10 mi
2:55 AM54 °FClear.No wind67%30.03 "Hg10 mi
2:35 AM54 °FClear.No wind63%30.02 "Hg10 mi
2:15 AM54 °FClear.No wind63%30.03 "Hg10 mi
Weather by CustomWeather, © 2015

See weather overviewHow to use our weather pages